| time (UTC) | temp F | wind direction | speed MPH | gust MPH | rain 1hr in | rain 24hr in | rain mn in | humidity % | barometer mb |
| 20260902013706 | 53 | 63 | 1.0 | 2.0 | 0.00 | 0.01 | 0.00 | 86 | 1020.5 |
| 20260902013205 | 53 | 63 | 1.0 | 2.0 | 0.00 | 0.01 | 0.00 | 86 | 1020.6 |
| 20260902012204 | 53 | 56 | 1.0 | 2.0 | 0.00 | 0.01 | 0.00 | 86 | 1020.6 |
| 20260902011205 | 53 | 46 | 0.0 | 1.0 | 0.00 | 0.01 | 0.00 | 85 | 1020.7 |
| 20260902010705 | 53 | 269 | 0.0 | 1.0 | 0.00 | 0.01 | 0.00 | 85 | 1020.7 |
| 20260902010206 | 53 | 63 | 0.0 | 0.0 | 0.00 | 0.01 | 0.00 | 85 | 1020.8 |
| 20260902004705 | 53 | 46 | 1.0 | 2.0 | 0.00 | 0.01 | 0.00 | 85 | 1020.7 |
| 20260902004206 | 54 | 89 | 1.0 | 3.0 | 0.00 | 0.01 | 0.00 | 85 | 1020.7 |
| 20260902003205 | 54 | 89 | 1.0 | 3.0 | 0.00 | 0.01 | 0.00 | 84 | 1020.8 |
| 20260902002223 | 54 | 35 | 1.0 | 2.0 | 0.00 | 0.01 | 0.00 | 84 | 1020.9 |
| 20260902001705 | 54 | 112 | 1.0 | 2.0 | 0.00 | 0.01 | 0.00 | 84 | 1021.1 |
| 20260902001205 | 54 | 222 | 0.0 | 2.0 | 0.00 | 0.01 | 0.00 | 84 | 1021.1 |
| 20260902000705 | 54 | 117 | 0.0 | 2.0 | 0.00 | 0.01 | 0.00 | 84 | 1021.2 |
| 20260902000205 | 55 | 269 | 1.0 | 2.0 | 0.00 | 0.01 | 0.01 | 84 | 1021.2 |
| 20260901235706 | 55 | 46 | 1.0 | 2.0 | 0.00 | 0.01 | 0.01 | 84 | 1021.2 |
| 20260901235206 | 55 | 63 | 1.0 | 2.0 | 0.00 | 0.01 | 0.01 | 84 | 1021.1 |
| 20260901234705 | 55 | 72 | 1.0 | 2.0 | 0.00 | 0.01 | 0.01 | 83 | 1021.1 |
| 20260901234206 | 55 | 15 | 1.0 | 2.0 | 0.00 | 0.01 | 0.01 | 83 | 1021.2 |
| 20260901233705 | 55 | 1 | 0.0 | 1.0 | 0.00 | 0.01 | 0.01 | 83 | 1021.3 |
| 20260901233206 | 55 | 324 | 0.0 | 2.0 | 0.00 | 0.01 | 0.01 | 83 | 1021.3 |
| 20260901232205 | 55 | 89 | 1.0 | 3.0 | 0.00 | 0.02 | 0.01 | 83 | 1021.2 |
| 20260901231705 | 55 | 89 | 1.0 | 3.0 | 0.00 | 0.02 | 0.01 | 82 | 1021.2 |
| 20260901231205 | 56 | 63 | 2.0 | 3.0 | 0.00 | 0.02 | 0.01 | 82 | 1021.1 |
| 20260901230705 | 56 | 84 | 2.0 | 3.0 | 0.00 | 0.02 | 0.01 | 82 | 1021.2 |
| 20260901230205 | 56 | 101 | 2.0 | 3.0 | 0.00 | 0.02 | 0.01 | 82 | 1021.2 |
| 20260901225705 | 56 | 89 | 1.0 | 3.0 | 0.00 | 0.02 | 0.01 | 82 | 1021.3 |
| 20260901224705 | 56 | 79 | 1.0 | 2.0 | 0.00 | 0.02 | 0.01 | 81 | 1021.3 |
| 20260901224205 | 56 | 101 | 0.0 | 2.0 | 0.00 | 0.02 | 0.01 | 81 | 1021.2 |
| 20260901223706 | 57 | 63 | 0.0 | 3.0 | 0.00 | 0.02 | 0.01 | 81 | 1021.1 |
| 20260901223206 | 57 | 240 | 1.0 | 3.0 | 0.00 | 0.02 | 0.01 | 81 | 1021.1 |
| 20260901222706 | 57 | 321 | 2.0 | 3.0 | 0.00 | 0.02 | 0.01 | 81 | 1020.9 |
| 20260901222223 | 57 | 28 | 1.0 | 3.0 | 0.00 | 0.02 | 0.01 | 80 | 1020.9 |
| 20260901221706 | 57 | 1 | 1.0 | 2.0 | 0.00 | 0.02 | 0.01 | 80 | 1021.1 |
| 20260901215705 | 58 | 63 | 0.0 | 2.0 | 0.00 | 0.02 | 0.01 | 79 | 1020.8 |
| 20260901215206 | 58 | 89 | 0.0 | 2.0 | 0.00 | 0.02 | 0.01 | 79 | 1020.8 |
| 20260901214725 | 58 | 89 | 0.0 | 2.0 | 0.00 | 0.02 | 0.01 | 79 | 1020.8 |
| 20260901213205 | 59 | 63 | 1.0 | 3.0 | 0.00 | 0.02 | 0.01 | 78 | 1020.7 |
| 20260901212722 | 59 | 63 | 1.0 | 3.0 | 0.00 | 0.02 | 0.01 | 78 | 1020.7 |
| 20260901212206 | 59 | 68 | 2.0 | 3.0 | 0.00 | 0.02 | 0.01 | 77 | 1020.7 |
| 20260901211705 | 59 | 56 | 2.0 | 3.0 | 0.00 | 0.02 | 0.01 | 78 | 1020.8 |
| 20260901211205 | 59 | 98 | 1.0 | 2.0 | 0.00 | 0.02 | 0.01 | 78 | 1020.7 |
| 20260901210706 | 60 | 89 | 1.0 | 2.0 | 0.00 | 0.02 | 0.01 | 77 | 1020.8 |
| 20260901205705 | 60 | 46 | 0.0 | 1.0 | 0.00 | 0.02 | 0.01 | 76 | 1020.7 |
| 20260901205205 | 60 | 63 | 0.0 | 1.0 | 0.00 | 0.02 | 0.01 | 76 | 1020.8 |
| 20260901204707 | 60 | 89 | 0.0 | 1.0 | 0.00 | 0.02 | 0.01 | 75 | 1020.7 |
| 20260901204205 | 61 | 46 | 0.0 | 1.0 | 0.00 | 0.02 | 0.01 | 75 | 1020.7 |
| 20260901203705 | 61 | 46 | 0.0 | 1.0 | 0.00 | 0.02 | 0.01 | 74 | 1020.7 |
| 20260901203205 | 61 | 46 | 0.0 | 1.0 | 0.00 | 0.07 | 0.01 | 74 | 1020.7 |
| 20260901202705 | 61 | 46 | 0.0 | 2.0 | 0.00 | 0.07 | 0.01 | 73 | 1020.7 |
| 20260901202206 | 62 | 89 | 0.0 | 2.0 | 0.00 | 0.07 | 0.01 | 73 | 1020.6 |
| 20260901201705 | 62 | 46 | 1.0 | 2.0 | 0.00 | 0.07 | 0.01 | 72 | 1020.7 |
| 20260901201205 | 62 | 56 | 1.0 | 2.0 | 0.00 | 0.07 | 0.01 | 72 | 1020.6 |
| 20260901200705 | 62 | 56 | 1.0 | 2.0 | 0.00 | 0.07 | 0.01 | 71 | 1020.6 |
| 20260901200205 | 62 | 89 | 0.0 | 2.0 | 0.00 | 0.07 | 0.01 | 71 | 1020.6 |
| 20260901195206 | 63 | 46 | 1.0 | 2.0 | 0.00 | 0.07 | 0.01 | 70 | 1020.6 |
| 20260901194705 | 63 | 63 | 0.0 | 1.0 | 0.00 | 0.07 | 0.01 | 70 | 1020.6 |
| 20260901194205 | 64 | 72 | 0.0 | 1.0 | 0.00 | 0.07 | 0.01 | 69 | 1020.7 |
| 20260901193705 | 64 | 89 | 0.0 | 1.0 | 0.00 | 0.07 | 0.01 | 68 | 1020.6 |
| 20260901193205 | 64 | 63 | 0.0 | 2.0 | 0.00 | 0.07 | 0.01 | 68 | 1020.7 |
| 20260901192705 | 64 | 269 | 0.0 | 2.0 | 0.00 | 0.09 | 0.01 | 67 | 1020.5 |
| 20260901192206 | 65 | 46 | 0.0 | 2.0 | 0.00 | 0.17 | 0.01 | 66 | 1020.5 |
| 20260901191705 | 65 | 89 | 1.0 | 2.0 | 0.00 | 0.20 | 0.01 | 65 | 1020.5 |
| 20260901191205 | 65 | 222 | 0.0 | 3.0 | 0.00 | 0.28 | 0.01 | 64 | 1020.4 |
| 20260901190706 | 66 | 89 | 1.0 | 3.0 | 0.00 | 0.28 | 0.01 | 64 | 1020.3 |
| 20260901190205 | 66 | 46 | 1.0 | 3.0 | 0.00 | 0.28 | 0.01 | 63 | 1020.3 |
| 20260901185706 | 66 | 1 | 2.0 | 2.0 | 0.00 | 0.28 | 0.01 | 62 | 1020.3 |
| 20260901185206 | 67 | 53 | 1.0 | 3.0 | 0.00 | 0.28 | 0.01 | 61 | 1020.2 |
| 20260901183707 | 67 | 74 | 1.0 | 2.0 | 0.00 | 0.28 | 0.01 | 59 | 1020.0 |
| 20260901183205 | 68 | 46 | 0.0 | 1.0 | 0.00 | 0.29 | 0.01 | 59 | 1020.0 |
| 20260901182705 | 68 | 124 | 0.0 | 1.0 | 0.00 | 0.29 | 0.01 | 58 | 1020.0 |
| 20260901182205 | 68 | 89 | 0.0 | 2.0 | 0.00 | 0.29 | 0.01 | 57 | 1020.0 |
| 20260901181204 | 69 | 46 | 1.0 | 2.0 | 0.00 | 0.29 | 0.01 | 57 | 1020.0 |
| 20260901180732 | 69 | 314 | 1.0 | 4.0 | 0.00 | 0.29 | 0.01 | 57 | 1020.0 |
| 20260901180205 | 69 | 286 | 1.0 | 6.0 | 0.00 | 0.29 | 0.01 | 57 | 1019.9 |
| 20260901175705 | 69 | 269 | 2.0 | 6.0 | 0.00 | 0.29 | 0.01 | 56 | 1019.9 |
| 20260901175206 | 69 | 240 | 3.0 | 7.0 | 0.00 | 0.29 | 0.01 | 56 | 1020.0 |
| 20260901174705 | 69 | 255 | 3.0 | 7.0 | 0.00 | 0.29 | 0.01 | 56 | 1019.9 |
| 20260901174206 | 69 | 257 | 4.0 | 8.0 | 0.00 | 0.29 | 0.01 | 56 | 1019.9 |
| 20260901173705 | 69 | 259 | 4.0 | 8.0 | 0.00 | 0.29 | 0.01 | 55 | 1020.0 |
| 20260901173206 | 70 | 229 | 4.0 | 11.0 | 0.00 | 0.30 | 0.01 | 55 | 1019.9 |
| 20260901172723 | 70 | 259 | 5.0 | 12.0 | 0.00 | 0.30 | 0.01 | 54 | 1019.9 |
| 20260901172205 | 70 | 269 | 7.0 | 14.0 | 0.00 | 0.30 | 0.01 | 53 | 1019.9 |
| 20260901171705 | 70 | 276 | 7.0 | 14.0 | 0.00 | 0.30 | 0.01 | 53 | 1020.0 |
| 20260901171228 | 71 | 252 | 8.0 | 14.0 | 0.00 | 0.30 | 0.01 | 52 | 1020.0 |
| 20260901170705 | 71 | 276 | 8.0 | 14.0 | 0.00 | 0.30 | 0.01 | 52 | 1020.0 |
| 20260901170221 | 71 | 252 | 8.0 | 13.0 | 0.00 | 0.30 | 0.01 | 51 | 1019.9 |
| 20260901165705 | 71 | 222 | 8.0 | 13.0 | 0.00 | 0.30 | 0.01 | 52 | 1019.9 |
| 20260901165206 | 71 | 271 | 7.0 | 13.0 | 0.00 | 0.30 | 0.01 | 52 | 1020.0 |
| 20260901164705 | 71 | 259 | 6.0 | 11.0 | 0.00 | 0.30 | 0.01 | 53 | 1020.0 |
| 20260901164205 | 71 | 222 | 6.0 | 12.0 | 0.00 | 0.30 | 0.01 | 52 | 1020.0 |
| 20260901163706 | 71 | 265 | 6.0 | 12.0 | 0.00 | 0.30 | 0.01 | 53 | 1020.0 |
| 20260901163205 | 71 | 229 | 6.0 | 12.0 | 0.00 | 0.30 | 0.01 | 53 | 1019.9 |
| 20260901162706 | 71 | 252 | 6.0 | 14.0 | 0.00 | 0.30 | 0.01 | 51 | 1019.9 |
| 20260901162206 | 72 | 240 | 6.0 | 14.0 | 0.00 | 0.30 | 0.01 | 50 | 1019.9 |
| 20260901161705 | 72 | 290 | 6.0 | 14.0 | 0.00 | 0.30 | 0.01 | 50 | 1019.9 |
| 20260901161205 | 73 | 245 | 6.0 | 13.0 | 0.00 | 0.30 | 0.01 | 49 | 1019.8 |
| 20260901160706 | 73 | 234 | 7.0 | 14.0 | 0.00 | 0.30 | 0.01 | 49 | 1019.8 |
| 20260901160206 | 73 | 236 | 6.0 | 14.0 | 0.00 | 0.30 | 0.01 | 49 | 1019.8 |
| 20260901155706 | 73 | 248 | 7.0 | 14.0 | 0.00 | 0.31 | 0.01 | 48 | 1019.8 |
| 20260901155206 | 73 | 257 | 7.0 | 16.0 | 0.00 | 0.32 | 0.01 | 47 | 1019.8 |
| 20260901154705 | 73 | 302 | 8.0 | 16.0 | 0.00 | 0.32 | 0.01 | 47 | 1019.9 |
| 20260901153705 | 74 | 229 | 8.0 | 16.0 | 0.00 | 0.32 | 0.01 | 46 | 1019.9 |
| 20260901153205 | 74 | 286 | 9.0 | 16.0 | 0.00 | 0.32 | 0.01 | 47 | 1019.9 |
| 20260901152705 | 73 | 250 | 10.0 | 16.0 | 0.00 | 0.32 | 0.01 | 48 | 1019.9 |
| 20260901152206 | 73 | 238 | 10.0 | 15.0 | 0.00 | 0.32 | 0.01 | 46 | 1019.9 |
| 20260901151206 | 74 | 226 | 9.0 | 16.0 | 0.00 | 0.32 | 0.01 | 44 | 1019.8 |
| 20260901150705 | 74 | 198 | 8.0 | 11.0 | 0.00 | 0.32 | 0.01 | 43 | 1019.8 |
| 20260901150205 | 75 | 245 | 6.0 | 12.0 | 0.00 | 0.32 | 0.01 | 48 | 1019.8 |
| 20260901145705 | 75 | 245 | 6.0 | 12.0 | 0.00 | 0.32 | 0.01 | 46 | 1019.8 |
| 20260901145206 | 74 | 252 | 7.0 | 12.0 | 0.00 | 0.32 | 0.01 | 47 | 1019.7 |
| 20260901144705 | 74 | 200 | 7.0 | 13.0 | 0.00 | 0.32 | 0.01 | 46 | 1019.7 |
| 20260901144205 | 74 | 255 | 7.0 | 13.0 | 0.00 | 0.32 | 0.01 | 48 | 1019.8 |
| 20260901143206 | 74 | 252 | 6.0 | 15.0 | 0.00 | 0.32 | 0.01 | 49 | 1019.8 |
| 20260901142705 | 73 | 276 | 7.0 | 16.0 | 0.00 | 0.32 | 0.01 | 49 | 1019.9 |
| 20260901142206 | 73 | 278 | 7.0 | 17.0 | 0.00 | 0.32 | 0.01 | 50 | 1020.0 |
| 20260901141705 | 73 | 243 | 8.0 | 17.0 | 0.00 | 0.32 | 0.01 | 49 | 1020.0 |
| 20260901141205 | 73 | 214 | 11.0 | 17.0 | 0.00 | 0.32 | 0.01 | 50 | 1020.1 |
| 20260901140705 | 73 | 243 | 11.0 | 14.0 | 0.00 | 0.32 | 0.01 | 47 | 1020.1 |
| 20260901135705 | 74 | 293 | 7.0 | 16.0 | 0.00 | 0.32 | 0.01 | 50 | 1020.1 |
| 20260901135205 | 73 | 291 | 9.0 | 16.0 | 0.00 | 0.32 | 0.01 | 49 | 1020.2 |
| 20260901134704 | 74 | 239 | 10.0 | 17.0 | 0.00 | 0.32 | 0.01 | 51 | 1020.3 |
| 20260901134206 | 74 | 238 | 9.0 | 17.0 | 0.00 | 0.32 | 0.01 | 49 | 1020.2 |
| 20260901133705 | 75 | 240 | 7.0 | 15.0 | 0.00 | 0.32 | 0.01 | 48 | 1020.1 |
| 20260901133205 | 74 | 224 | 6.0 | 16.0 | 0.00 | 0.32 | 0.01 | 52 | 1020.1 |
| 20260901132706 | 73 | 279 | 8.0 | 16.0 | 0.00 | 0.32 | 0.01 | 50 | 1020.1 |
| 20260901131705 | 73 | 236 | 9.0 | 17.0 | 0.00 | 0.32 | 0.01 | 50 | 1020.2 |
| 20260901131207 | 73 | 246 | 9.0 | 17.0 | 0.00 | 0.32 | 0.01 | 51 | 1020.3 |
| 20260901130705 | 73 | 227 | 10.0 | 16.0 | 0.00 | 0.32 | 0.01 | 49 | 1020.3 |
| 20260901130206 | 73 | 226 | 8.0 | 16.0 | 0.00 | 0.32 | 0.01 | 51 | 1020.3 |
| 20260901125706 | 73 | 233 | 6.0 | 15.0 | 0.00 | 0.32 | 0.01 | 52 | 1020.3 |
| 20260901125206 | 71 | 298 | 8.0 | 15.0 | 0.00 | 0.32 | 0.01 | 55 | 1020.4 |
| 20260901124705 | 72 | 243 | 9.0 | 15.0 | 0.00 | 0.32 | 0.01 | 51 | 1020.4 |
| 20260901123728 | 73 | 248 | 8.0 | 15.0 | 0.00 | 0.32 | 0.01 | 52 | 1020.5 |
| 20260901123205 | 74 | 245 | 8.0 | 15.0 | 0.00 | 0.32 | 0.01 | 53 | 1020.4 |
| 20260901122705 | 73 | 250 | 7.0 | 13.0 | 0.00 | 0.32 | 0.01 | 55 | 1020.5 |
| 20260901122205 | 72 | 253 | 6.0 | 15.0 | 0.00 | 0.32 | 0.01 | 55 | 1020.5 |
| 20260901121704 | 73 | 281 | 7.0 | 15.0 | 0.00 | 0.32 | 0.01 | 56 | 1020.6 |
| 20260901121205 | 72 | 253 | 7.0 | 13.0 | 0.00 | 0.32 | 0.01 | 58 | 1020.6 |
| 20260901120706 | 71 | 250 | 7.0 | 13.0 | 0.00 | 0.32 | 0.01 | 57 | 1020.5 |
| 20260901120205 | 71 | 226 | 9.0 | 14.0 | 0.00 | 0.32 | 0.01 | 58 | 1020.5 |
| 20260901115705 | 70 | 274 | 8.0 | 16.0 | 0.00 | 0.32 | 0.01 | 58 | 1020.5 |
| 20260901114705 | 70 | 265 | 10.0 | 17.0 | 0.00 | 0.32 | 0.01 | 59 | 1020.5 |
| 20260901114205 | 70 | 264 | 10.0 | 16.0 | 0.01 | 0.32 | 0.01 | 58 | 1020.6 |
| 20260901113204 | 70 | 259 | 8.0 | 14.0 | 0.01 | 0.33 | 0.01 | 60 | 1020.5 |
| 20260901112706 | 69 | 240 | 8.0 | 14.0 | 0.01 | 0.33 | 0.01 | 61 | 1020.5 |
| 20260901111705 | 69 | 253 | 9.0 | 15.0 | 0.01 | 0.33 | 0.01 | 62 | 1020.6 |
| 20260901110705 | 70 | 274 | 7.0 | 15.0 | 0.01 | 0.33 | 0.01 | 65 | 1020.7 |
| 20260901110206 | 69 | 262 | 7.0 | 15.0 | 0.01 | 0.33 | 0.01 | 64 | 1020.7 |
| 20260901105707 | 69 | 238 | 7.0 | 15.0 | 0.01 | 0.33 | 0.01 | 65 | 1020.9 |
| 20260901105205 | 69 | 271 | 7.0 | 15.0 | 0.01 | 0.33 | 0.01 | 65 | 1020.9 |
| 20260901104705 | 68 | 286 | 7.0 | 14.0 | 0.00 | 0.32 | 0.00 | 66 | 1020.9 |
| 20260901104205 | 68 | 245 | 6.0 | 13.0 | 0.00 | 0.32 | 0.00 | 66 | 1020.8 |
| 20260901103205 | 66 | 262 | 6.0 | 10.0 | 0.00 | 0.32 | 0.00 | 70 | 1021.1 |
| 20260901102705 | 66 | 239 | 5.0 | 10.0 | 0.00 | 0.32 | 0.00 | 70 | 1020.9 |
| 20260901102206 | 66 | 271 | 5.0 | 15.0 | 0.00 | 0.32 | 0.00 | 71 | 1021.1 |
| 20260901100706 | 66 | 241 | 5.0 | 11.0 | 0.00 | 0.32 | 0.00 | 72 | 1021.1 |
| 20260901100206 | 66 | 283 | 5.0 | 14.0 | 0.00 | 0.32 | 0.00 | 72 | 1021.2 |
| 20260901095705 | 66 | 151 | 6.0 | 14.0 | 0.00 | 0.32 | 0.00 | 74 | 1021.3 |
| 20260901094705 | 66 | 248 | 6.0 | 14.0 | 0.00 | 0.32 | 0.00 | 75 | 1020.9 |
| 20260901094205 | 66 | 269 | 6.0 | 15.0 | 0.00 | 0.32 | 0.00 | 74 | 1020.9 |
| 20260901093705 | 66 | 243 | 8.0 | 15.0 | 0.00 | 0.32 | 0.00 | 74 | 1021.2 |
| 20260901093205 | 66 | 246 | 7.0 | 15.0 | 0.00 | 0.32 | 0.00 | 73 | 1021.3 |
| 20260901092706 | 67 | 208 | 7.0 | 15.0 | 0.00 | 0.32 | 0.00 | 75 | 1021.2 |
| 20260901092205 | 65 | 252 | 8.0 | 15.0 | 0.00 | 0.32 | 0.00 | 75 | 1021.2 |
| 20260901091706 | 65 | 203 | 9.0 | 14.0 | 0.00 | 0.32 | 0.00 | 75 | 1021.3 |
| 20260901091206 | 65 | 226 | 9.0 | 14.0 | 0.00 | 0.32 | 0.00 | 75 | 1021.3 |
| 20260901090206 | 64 | 257 | 10.0 | 14.0 | 0.00 | 0.32 | 0.00 | 76 | 1021.2 |
| 20260901085705 | 63 | 234 | 9.0 | 16.0 | 0.00 | 0.32 | 0.00 | 78 | 1020.9 |
| 20260901085206 | 63 | 257 | 8.0 | 16.0 | 0.00 | 0.32 | 0.00 | 79 | 1020.9 |
| 20260901084706 | 63 | 253 | 8.0 | 14.0 | 0.00 | 0.32 | 0.00 | 79 | 1020.9 |
| 20260901084206 | 63 | 220 | 7.0 | 14.0 | 0.00 | 0.32 | 0.00 | 82 | 1020.9 |
| 20260901083705 | 62 | 250 | 7.0 | 13.0 | 0.00 | 0.32 | 0.00 | 83 | 1021.1 |
| 20260901083205 | 62 | 240 | 6.0 | 9.0 | 0.00 | 0.32 | 0.00 | 85 | 1020.9 |
| 20260901082705 | 62 | 229 | 5.0 | 9.0 | 0.00 | 0.32 | 0.00 | 86 | 1020.9 |
| 20260901082205 | 61 | 248 | 5.0 | 11.0 | 0.00 | 0.32 | 0.00 | 87 | 1020.9 |
| 20260901081705 | 61 | 260 | 6.0 | 11.0 | 0.00 | 0.32 | 0.00 | 89 | 1020.9 |
| 20260901081205 | 60 | 222 | 6.0 | 11.0 | 0.00 | 0.32 | 0.00 | 89 | 1021.1 |
| 20260901080706 | 60 | 231 | 5.0 | 8.0 | 0.00 | 0.32 | 0.00 | 90 | 1021.2 |
| 20260901080207 | 60 | 240 | 4.0 | 9.0 | 0.00 | 0.32 | 0.00 | 91 | 1021.2 |
| 20260901075705 | 60 | 243 | 4.0 | 9.0 | 0.00 | 0.32 | 0.00 | 91 | 1021.1 |
| 20260901075221 | 59 | 257 | 5.0 | 9.0 | 0.00 | 0.32 | 0.00 | 92 | 1021.1 |
| 20260901074705 | 59 | 276 | 4.0 | 9.0 | 0.00 | 0.32 | 0.00 | 92 | 1021.3 |
| 20260901074233 | 59 | 321 | 4.0 | 7.0 | 0.00 | 0.32 | 0.00 | 93 | 1021.1 |
| 20260901073206 | 58 | 298 | 4.0 | 7.0 | 0.00 | 0.32 | 0.00 | 94 | 1020.9 |
| 20260901072705 | 57 | 227 | 4.0 | 7.0 | 0.00 | 0.32 | 0.00 | 94 | 1020.8 |
| 20260901072206 | 57 | 257 | 4.0 | 7.0 | 0.00 | 0.32 | 0.00 | 94 | 1020.7 |
| 20260901071705 | 57 | 219 | 3.0 | 7.0 | 0.00 | 0.32 | 0.00 | 94 | 1020.7 |
| 20260901071206 | 57 | 239 | 3.0 | 7.0 | 0.00 | 0.32 | 0.00 | 94 | 1020.7 |
| 20260901070705 | 56 | 258 | 4.0 | 5.0 | 0.00 | 0.32 | 0.00 | 94 | 1020.7 |
| 20260901065205 | 56 | 245 | 4.0 | 7.0 | 0.00 | 0.32 | 0.00 | 94 | 1020.7 |
| 20260901064705 | 56 | 264 | 4.0 | 7.0 | 0.00 | 0.32 | 0.00 | 94 | 1020.6 |
| 20260901064205 | 56 | 246 | 4.0 | 7.0 | 0.00 | 0.32 | 0.00 | 94 | 1020.6 |
| 20260901063706 | 56 | 250 | 4.0 | 6.0 | 0.00 | 0.32 | 0.00 | 94 | 1020.6 |
| 20260901063206 | 56 | 255 | 4.0 | 6.0 | 0.00 | 0.32 | 0.00 | 94 | 1020.6 |
| 20260901062205 | 55 | 212 | 4.0 | 6.0 | 0.00 | 0.32 | 0.00 | 94 | 1020.4 |
| 20260901061705 | 55 | 239 | 2.0 | 6.0 | 0.00 | 0.32 | 0.00 | 94 | 1020.5 |
| 20260901061205 | 55 | 250 | 1.0 | 5.0 | 0.00 | 0.32 | 0.00 | 94 | 1020.5 |
| 20260901060705 | 54 | 269 | 2.0 | 4.0 | 0.00 | 0.32 | 0.00 | 94 | 1020.5 |
| 20260901060229 | 54 | 314 | 2.0 | 4.0 | 0.00 | 0.32 | 0.00 | 94 | 1020.5 |
| 20260901055706 | 54 | 293 | 2.0 | 4.0 | 0.00 | 0.32 | 0.00 | 94 | 1020.4 |
| 20260901055206 | 54 | 257 | 2.0 | 4.0 | 0.00 | 0.32 | 0.00 | 94 | 1020.4 |
| 20260901054706 | 54 | 284 | 1.0 | 2.0 | 0.00 | 0.32 | 0.00 | 93 | 1020.4 |
| 20260901054206 | 54 | 222 | 1.0 | 2.0 | 0.00 | 0.32 | 0.00 | 93 | 1020.3 |
| 20260901053706 | 54 | 269 | 0.0 | 2.0 | 0.00 | 0.32 | 0.00 | 93 | 1020.4 |
| 20260901053205 | 54 | 279 | 0.0 | 2.0 | 0.00 | 0.32 | 0.00 | 93 | 1020.3 |
| 20260901052705 | 54 | 269 | 1.0 | 2.0 | 0.00 | 0.32 | 0.00 | 93 | 1020.4 |
| 20260901051705 | 54 | 269 | 0.0 | 3.0 | 0.00 | 0.32 | 0.00 | 93 | 1020.4 |
| 20260901051205 | 54 | 46 | 0.0 | 3.0 | 0.00 | 0.32 | 0.00 | 93 | 1020.3 |
| 20260901050205 | 54 | 252 | 1.0 | 3.0 | 0.00 | 0.32 | 0.00 | 93 | 1020.4 |
| 20260901045705 | 54 | 269 | 1.0 | 3.0 | 0.00 | 0.32 | 0.00 | 93 | 1020.3 |
| 20260901045205 | 54 | 269 | 1.0 | 3.0 | 0.00 | 0.32 | 0.00 | 93 | 1020.3 |
| 20260901044705 | 54 | 1 | 1.0 | 2.0 | 0.00 | 0.32 | 0.00 | 93 | 1020.3 |
| 20260901044205 | 54 | 340 | 0.0 | 4.0 | 0.00 | 0.32 | 0.00 | 93 | 1020.3 |
| 20260901043705 | 54 | 295 | 1.0 | 4.0 | 0.00 | 0.32 | 0.00 | 93 | 1020.3 |
| 20260901043206 | 54 | 135 | 2.0 | 4.0 | 0.00 | 0.32 | 0.00 | 93 | 1020.2 |
| 20260901042706 | 54 | 170 | 2.0 | 4.0 | 0.00 | 0.32 | 0.00 | 93 | 1020.2 |
| 20260901042204 | 54 | 207 | 2.0 | 3.0 | 0.00 | 0.32 | 0.00 | 93 | 1020.2 |
| 20260901041705 | 54 | 190 | 2.0 | 3.0 | 0.00 | 0.32 | 0.00 | 93 | 1020.1 |
| 20260901040705 | 54 | 135 | 1.0 | 3.0 | 0.00 | 0.32 | 0.00 | 93 | 1020.1 |
| 20260901040205 | 54 | 135 | 1.0 | 4.0 | 0.00 | 0.32 | 0.00 | 93 | 1020.0 |
| 20260901035705 | 55 | 117 | 1.0 | 4.0 | 0.00 | 0.32 | 0.00 | 93 | 1020.0 |
| 20260901035206 | 55 | 1 | 1.0 | 4.0 | 0.00 | 0.32 | 0.00 | 93 | 1020.0 |
| 20260901034705 | 55 | 178 | 2.0 | 4.0 | 0.00 | 0.32 | 0.00 | 93 | 1020.0 |
| 20260901034206 | 55 | 135 | 2.0 | 4.0 | 0.00 | 0.32 | 0.00 | 93 | 1020.0 |
| 20260901033705 | 55 | 222 | 1.0 | 3.0 | 0.00 | 0.32 | 0.00 | 93 | 1020.0 |
| 20260901033206 | 55 | 193 | 1.0 | 4.0 | 0.00 | 0.32 | 0.00 | 93 | 1019.9 |
| 20260901032706 | 55 | 32 | 1.0 | 4.0 | 0.00 | 0.32 | 0.00 | 93 | 1020.0 |
| 20260901032205 | 55 | 269 | 1.0 | 4.0 | 0.00 | 0.32 | 0.00 | 93 | 1019.9 |
| 20260901031705 | 55 | 81 | 1.0 | 4.0 | 0.00 | 0.32 | 0.00 | 93 | 1019.9 |
| 20260901031205 | 55 | 35 | 1.0 | 4.0 | 0.00 | 0.32 | 0.00 | 93 | 1019.8 |
| 20260901030705 | 55 | 156 | 1.0 | 3.0 | 0.00 | 0.32 | 0.00 | 93 | 1019.8 |
| 20260901030205 | 55 | 46 | 1.0 | 3.0 | 0.00 | 0.32 | 0.00 | 93 | 1019.9 |
| 20260901025706 | 55 | 178 | 2.0 | 3.0 | 0.00 | 0.32 | 0.00 | 93 | 1019.8 |
| 20260901025205 | 55 | 79 | 1.0 | 2.0 | 0.00 | 0.32 | 0.00 | 93 | 1019.9 |
| 20260901024705 | 55 | 68 | 1.0 | 2.0 | 0.00 | 0.32 | 0.00 | 93 | 1019.9 |
| 20260901024206 | 55 | 151 | 1.0 | 2.0 | 0.00 | 0.32 | 0.00 | 93 | 1019.8 |
| 20260901023705 | 56 | 15 | 1.0 | 2.0 | 0.00 | 0.32 | 0.00 | 93 | 1019.8 |
| 20260901023205 | 56 | 46 | 1.0 | 3.0 | 0.00 | 0.32 | 0.00 | 93 | 1019.8 |
| 20260901021205 | 56 | 169 | 1.0 | 5.0 | 0.00 | 0.32 | 0.00 | 93 | 1019.6 |
| 20260901020705 | 56 | 295 | 2.0 | 5.0 | 0.00 | 0.32 | 0.00 | 93 | 1019.7 |
| 20260901020205 | 56 | 197 | 2.0 | 4.0 | 0.00 | 0.32 | 0.00 | 93 | 1019.6 |
| 20260901015705 | 56 | 121 | 1.0 | 4.0 | 0.00 | 0.32 | 0.00 | 93 | 1019.7 |
| 20260901015205 | 56 | 20 | 2.0 | 5.0 | 0.00 | 0.32 | 0.00 | 93 | 1019.6 |
| 20260901014706 | 56 | 130 | 3.0 | 5.0 | 0.00 | 0.33 | 0.00 | 93 | 1019.6 |